Savannah, GA

5:20 AM EDT on September 28, 2016 (GMT -0400)
Hunter Army Air Field

Weather History for KSVN - September, 2013

Change the Weather History Date:

Saturday, September 21, 2013

  Actual Average Record
Temperature  
Mean Temperature 76 °F -  
Max Temperature 85 °F 82 °F 90 °F (2010)
Min Temperature 66 °F 66 °F 55 °F (2006)
Cooling Degree Days 10    
Growing Degree Days 26 (Base 50)    
Moisture  
Dew Point 69 °F    
Average Humidity 80    
Maximum Humidity 100    
Minimum Humidity 58    
Precipitation  
Precipitation 0.01 in - - ()
Sea Level Pressure  
Sea Level Pressure 29.84 in    
Wind  
Wind Speed 4 mph (SSW)    
Max Wind Speed 12 mph    
Max Gust Speed -    
Visibility 9 miles    
Events Rain    
Averages and records for this station are not official NWS values.
T = Trace of Precipitation, MM = Missing Value Source: NWS Daily Summary

Daily Weather History Graph

Daily Weather History Graph

Search for Another Location

Airport or City:

Trip Planner

Search our weather history database for the weather conditions in past years. The results will help you decide how hot, cold, wet, or windy it might be!

Date:

Astronomy

Sep. 21, 2013 Rise Set
Actual Time 7:12 AM EDT 7:22 PM EDT
Civil Twilight 6:47 AM EDT 7:46 PM EDT
Nautical Twilight 6:19 AM EDT 8:15 PM EDT
Astronomical Twilight 5:50 AM EDT 8:43 PM EDT
Moon 8:44 PM EDT (9/21) 9:18 AM EDT (9/21)
Length of Visible Light 12h 58m
Length of Day
12h 09m
Waning Gibbous, 94% of the Moon is Illuminated
Sep 21
Waning Gibbous
Sep 26
Last Quarter
Oct 4
New
Oct 11
First Quarter
Oct 18
Full

Hourly Weather History & Observations

Time (EDT) Temp. Heat Index Dew Point Humidity Pressure Visibility Wind Dir Wind Speed Gust Speed Precip Events Conditions
12:58 AM 68.7 °F - 66.6 °F 93% 29.96 in 10.0 mi Calm Calm - N/A   Clear
1:58 AM 68.2 °F - 66.0 °F 93% 29.96 in 10.0 mi West 2.3 mph - N/A   Clear
2:58 AM 66.9 °F - 65.3 °F 95% 29.94 in 10.0 mi West 4.6 mph - N/A   Clear
3:58 AM 67.1 °F - 65.5 °F 95% 29.91 in 10.0 mi West 2.3 mph - N/A   Partly Cloudy
4:58 AM 67.1 °F - 66.0 °F 96% 29.89 in 10.0 mi Calm Calm - N/A   Clear
5:58 AM 67.3 °F - 66.4 °F 97% 29.89 in 10.0 mi Calm Calm - N/A   Clear
6:58 AM 66.4 °F - 65.5 °F 97% 29.89 in 10.0 mi Calm Calm - N/A   Clear
7:58 AM 67.8 °F - 67.1 °F 98% 29.90 in 10.0 mi Calm Calm - N/A   Scattered Clouds
8:03 AM 68.0 °F - 68.0 °F 100% 29.90 in 10.0 mi Calm Calm - N/A   Mostly Cloudy
8:08 AM 69.8 °F - 68.0 °F 94% 29.90 in 10.0 mi West 2.3 mph - N/A   Mostly Cloudy
8:58 AM 72.3 °F - 69.8 °F 92% 29.91 in 10.0 mi West 1.2 mph - N/A   Mostly Cloudy
9:58 AM 78.8 °F - 69.8 °F 74% 29.91 in 10.0 mi WSW 4.6 mph - N/A   Clear
10:58 AM 82.2 °F 86.0 °F 69.6 °F 66% 29.89 in 10.0 mi WSW 8.1 mph - N/A   Clear
11:58 AM 83.5 °F 86.9 °F 68.7 °F 61% 29.88 in 10.0 mi SSW 5.8 mph - N/A   Clear
12:58 PM 83.8 °F 86.7 °F 67.6 °F 58% 29.86 in 6.0 mi Variable 6.9 mph - N/A   Haze
1:43 PM 84.2 °F 88.4 °F 69.8 °F 62% 29.83 in 0.2 mi SSE 8.1 mph - N/A   Haze
1:44 PM 84.2 °F 88.4 °F 69.8 °F 62% 29.83 in 0.2 mi SSE 9.2 mph - N/A Rain Light Rain
1:52 PM 84.2 °F 87.3 °F 68.0 °F 58% 29.82 in 4.0 mi SE 3.5 mph - N/A   Haze
1:58 PM 84.2 °F 87.9 °F 68.9 °F 60% 29.83 in 10.0 mi South 8.1 mph - 0.00 in   Mostly Cloudy
2:58 PM 85.5 °F 89.8 °F 69.6 °F 59% 29.80 in 10.0 mi South 8.1 mph - N/A   Mostly Cloudy
3:58 PM 83.7 °F 88.6 °F 71.1 °F 66% 29.78 in 10.0 mi SSE 10.4 mph - N/A   Scattered Clouds
4:58 PM 83.1 °F 87.6 °F 70.7 °F 66% 29.76 in 10.0 mi SSE 11.5 mph - N/A   Partly Cloudy
5:58 PM 80.8 °F 84.2 °F 70.2 °F 70% 29.76 in 10.0 mi SSE 9.2 mph - N/A   Scattered Clouds
6:58 PM 79.7 °F - 70.5 °F 73% 29.76 in 10.0 mi SSE 5.8 mph - N/A   Clear
7:58 PM 79.0 °F - 70.9 °F 76% 29.76 in 10.0 mi SSE 6.9 mph - N/A   Clear
8:58 PM 79.2 °F - 71.1 °F 76% 29.77 in 10.0 mi South 8.1 mph - N/A   Mostly Cloudy
9:11 PM 78.8 °F - 71.6 °F 78% 29.76 in 10.0 mi South 5.8 mph - N/A   Light Drizzle
9:58 PM 75.7 °F - 73.0 °F 91% 29.79 in 10.0 mi West 6.9 mph - 0.00 in   Light Drizzle
10:20 PM 75.2 °F - 73.4 °F 94% 29.77 in 10.0 mi SW 3.5 mph - N/A   Partly Cloudy
10:58 PM 74.5 °F - 73.0 °F 95% 29.77 in 10.0 mi SSW 4.6 mph - 0.00 in   Clear
11:58 PM 74.3 °F - 72.7 °F 95% 29.77 in 10.0 mi South 5.8 mph - 0.01 in   Clear